Regional Weather Roundup
Issued by NWS Sioux Falls, SD

Home | Current Version | Previous Version | Graphics & Text | Print | Product List | Glossary On
Versions: 1 2 3 4 5 6 7 8 9 10 11 12 13 14 15 16 17 18 19 20 21 22 23 24 25 26 27 28 29 30 31 32 33 34 35 36 37 38 39 40 41 42 43 44 45 46 47 48 49 50
000
ASUS43 KFSD 271202
RWRFSD

WEATHER ROUNDUP FOR SE SOUTH DAKOTA/SW MINNESOTA/NW IOWA
NATIONAL WEATHER SERVICE SIOUX FALLS SD
700 AM CDT FRI MAR 27 2015

NOTE: "FAIR" INDICATES FEW OR NO CLOUDS BELOW 12,000 FEET WITH NO
SIGNIFICANT WEATHER AND OR OBSTRUCTIONS TO VISIBILITY.


SDZ038>040-050-052>070-271300-
SOUTHEAST SOUTH DAKOTA

CITY           SKY/WX    TMP DP  RH WIND       PRES   REMARKS
CHAMBERLAIN    NOT AVBL
HURON          PTCLDY    14  10  84 SW3       30.28F
6HR MIN TEMP:  11; 6HR MAX TEMP:  20;

MADISON        FAIR      10  10 100 NW6       30.25S WCI   1
MITCHELL       PTCLDY    15  10  80 CALM      30.30F
6HR MIN TEMP:  13; 6HR MAX TEMP:  22;

SIOUX FALLS    PTCLDY    14   9  80 W3        30.27R
6HR MIN TEMP:  14; 6HR MAX TEMP:  22;

WINNER         CLOUDY    29  18  63 SE13      30.21F WCI  19
YANKTON        CLEAR     16  10  79 NW7       30.31S WCI   6
$$

MNZ071-072-080-081-089-090-097-098-271300-
SOUTHWEST MINNESOTA

CITY           SKY/WX    TMP DP  RH WIND       PRES   REMARKS
FAIRMONT       CLEAR     18  10  73 NW6       30.24S WCI   9
JACKSON        CLEAR     16  10  79 N5        30.25S WCI   9
LUVERNE        CLEAR     18  12  79 CALM      30.27R
MARSHALL       CLEAR     12   7  79 NW8       30.28S WCI   1
6HR MIN TEMP:  12; 6HR MAX TEMP:  21;

MONTEVIDEO     CLEAR     16  10  79 NW5       30.29S WCI   9
PIPESTONE      CLEAR     16  10  79 CALM      30.24S
REDWOOD FALLS  CLEAR     18   7  62 N5        30.28S WCI  11
TRACY          CLEAR     17  13  84 W5        30.26S WCI  10
WINDOM         CLEAR     12  10  92 NW5       30.25S WCI   4
WORTHINGTON    CLEAR     12   9  85 NW7       30.25S WCI   2
$$

IAZ001>003-012>014-020>022-031-032-NEZ013-014-SDZ071-271300-
NORTHWEST IOWA

CITY           SKY/WX    TMP DP  RH WIND       PRES   REMARKS
DENISON        CLEAR     19  16  86 CALM      30.25R
ESTHERVILLE    CLEAR     17  11  77 N7        30.24R WCI   8
SIOUX CITY     CLEAR     19  12  74 N7        30.30R WCI  10
6HR MIN TEMP:  17; 6HR MAX TEMP:  28;

SPENCER        CLEAR     16  10  77 N8        30.25R WCI   5
6HR MIN TEMP:  16; 6HR MAX TEMP:  23;

$$

ABBREVIATIONS USED IN REMARKS
   TC - TEMPERATURE IN CELSIUS
  WCI - WIND CHILL INDEX
   HX - HEAT INDEX
  VSB - VISIBILITY



USA.gov is the U.S. government's official web portal to all federal, state and local government web resources and services.